Weather in Frantiskovy Lazne

Czech Republic     50°07′19″N   12°20′54″E
temp.,
°C
wind,
m/s
gust,
m/s
humid.,
%
clouds,
%
prec.,
mm/h
press.,
hPa
HPBL,
m
11 may, tue
tue1123:00+14ene239794 1.8 100869
02:00+13e119685 2.2 100714
05:00+11nne1196100 0.0 100611
08:00+14nw0192100 0.0 1006188
11:00+17ssw1180100 0.1 1005721
14:00+17sw3375100 0.1 1005700
17:00+17wsw3375100 0.1 1005722
20:00+14wnw3591100 0.1 1005441
12 may, wed
wed1223:00+12wnw2595100 0.1 1007639
02:00+10w3897100 0.8 1009597
05:00+10wnw3997100 0.8 1008527
08:00+10wsw2599100 3.3 1009345
11:00+10nw3897100 3.4 1009611
14:00+9nnw3896100 5.4 1010642
17:00+9nnw3797100 1.0 1009688
20:00+9nnw3999100 5.9 1008648
13 may, thu
thu1323:00+8nnw3898100 9.3 1009548
02:00+7nnw41098100 12.7 1007624
05:00+7nw41098100 9.3 1006611
08:00+8wnw41098100 18.6 1005720
11:00+7wnw41097100 3.2 1005777
14:00+7wnw4997100 7.0 1005695
17:00+7w4897100 6.2 1006725
20:00+6w4997100 10.8 1006627
14 may, fri
fri1423:00+6w41097100 3.8 10071007
02:00+6w3998100 6.1 10071087
05:00+6w3997100 1.1 1007976
08:00+7w3897100 2.0 1008719
11:00+7wsw3797100 0.2 1008546
14:00+11wnw368194 0.6 10081054
17:00+12wnw357058 0.8 10081213
20:00+9n11905 1.3 100914
15 may, sat
sat1523:00+5sw01951 0.0 101110
02:00+4sw11960 0.0 101110
05:00+4sw11970 0.0 101210
08:00+8wsw12894 0.0 1012244
11:00+14w345742 0.1 10111553
14:00+16w344694 0.1 10102193
17:00+15w456096 0.0 1010894
20:00+11w2281100 0.3 101129